CAPE
1 1 1 2 1 3 2 0 0 1 0 1 0 0 0 0 0 0 0 0 0 0 0 0 0 0 0 0 0 0 0 0 0 0 0 0 0 0 0 0 0 0 0 0 3 1 0 26 71 39 0 0 0 0
0 0 2 2 3 4 1 0 0 1 0 0 2 0 0 0 0 0 0 0 0 0 0 0 0 0 0 0 0 0 0 0 0 0 0 0 0 0 0 0 0 0 0 0 0 21 0 0 16 0 0 0 0 0
1 0 2 3 3 3 3 1 2 2 0 0 3 2 0 0 0 0 0 0 0 0 0 0 0 0 0 0 0 0 0 0 0 0 0 0 0 0 0 0 0 0 1 5 0 0 0 2 0 0 0 0 0 0
1 1 3 2 3 1 1 3 3 3 1 1 3 1 1 0 0 0 0 0 0 0 0 1 0 0 0 0 0 0 0 0 0 0 0 0 0 0 0 0 0 0 0 0 0 1 0 0 5 1 0 0 0 0
1 2 2 2 2 3 5 3 0 3 4 2 3 2 0 0 0 0 0 2 0 0 1 4 0 0 0 0 0 0 0 0 0 0 0 1 2 1 1 0 0 0 10 12 12 17 3 3 0 0 0 0 0 0
0 0 0 1 3 0 0 0 0 5 1 2 2 0 0 0 0 0 3 12 0 0 0 0 3 0 0 0 0 0 0 0 0 0 0 0 1 0 0 0 0 0 0 0 0 0 0 0 0 0 0 0 0 0
2 0 3 0 0 1 0 1 0 0 2 0 0 0 0 0 0 0 0 0 0 0 0 1 2 0 0 0 0 0 0 0 0 1 0 0 2 2 1 2 5 0 2 4 0 0 0 0 1 9 5 7 2 1
1 0 0 1 2 0 0 0 0 0 0 0 0 0 0 0 0 6 0 0 0 0 0 10 6 0 0 0 10 16 9 5 6 1 0 0 0 0 1 2 0 12 11 5 15 9 0 3 8 14 20 21 5 6
0 0 0 0 0 0 0 0 0 0 0 0 0 0 0 0 34 1 0 0 0 0 4 1 38 38 0 18 28 18 6 1 13 5 0 0 0 0 9 14 36 17 54 2 0 3 0 5 33 18 7 4 7 5
0 0 0 0 0 0 0 0 0 0 0 0 0 9 30 8 0 0 1 2 11 11 3 0 39 9 0 15 24 39 27 13 4 3 22 0 0 44 47 4 0 1 0 3 15 3 53 28 1 0 17 28 27 23
0 0 0 0 0 0 0 0 0 0 0 5 23 36 18 0 7 21 24 19 8 2 2 11 39 33 1 9 22 33 29 20 2 12 3 2 11 47 0 0 0 0 5 35 26 32 100 87 27 17 4 2 9 11
0 0 0 0 0 0 0 0 0 0 4 0 0 0 10 18 16 24 15 9 3 35 12 20 8 13 117 10 4 36 22 19 4 24 8 1 8 119 12 0 0 0 5 4 2 14 72 21 15 10 2 1 7 10
0 0 0 0 0 0 0 0 0 0 0 0 16 19 21 13 2 1 5 44 26 19 33 72 165 0 71 35 32 40 36 20 22 9 5 4 124 127 90 68 33 46 57 0 3 8 3 0 1 8 0 1 4 2
0 0 0 0 0 0 0 0 0 0 0 19 41 0 4 0 0 8 30 94 146 103 85 73 150 154 135 108 86 64 61 25 19 6 16 89 298 388 348 229 86 20 1 0 8 13 24 4 0 21 18 15 5 10
0 0 0 0 0 0 0 0 0 0 5 30 35 2 10 0 17 27 25 82 74 108 70 111 160 171 190 101 113 41 25 9 5 15 8 221 342 440 333 269 26 0 0 2 6 22 19 0 1 11 9 28 19 11
0 0 0 0 0 0 0 0 0 0 24 23 13 1 0 15 21 71 73 87 91 54 83 203 62 132 136 110 102 70 20 14 20 11 0 141 109 392 288 144 4 0 4 7 31 29 16 3 9 10 18 25 6 5
0 3 0 0 0 0 0 0 15 33 22 16 0 0 0 2 3 26 135 136 45 88 119 85 75 25 157 156 97 50 74 60 15 0 0 139 259 195 21 7 7 48 13 5 35 17 24 15 5 20 4 5 5 8
3 2 0 0 0 2 22 1 23 12 5 0 9 3 13 26 21 18 50 70 102 108 156 71 179 64 44 14 47 85 156 89 74 74 61 46 153 201 134 47 148 78 48 34 6 0 12 17 11 2 16 11 3 17
2 0 0 0 1 2 7 12 13 15 5 13 20 19 10 5 3 7 29 102 153 201 264 126 81 130 137 229 138 99 227 265 32 29 71 137 319 315 242 211 185 116 85 14 46 24 8 5 7 17 16 0 5 12
0 0 0 0 1 4 6 19 24 16 1 3 9 20 23 25 28 46 38 93 257 116 15 101 176 361 294 229 224 118 19 95 107 26 67 130 142 123 232 193 103 3 1 13 1 3 8 1 17 7 28 7 0 3
0 1 0 2 0 4 4 3 15 5 6 7 12 15 11 27 106 154 139 343 94 106 274 286 365 333 489 247 136 97 100 119 127 154 21 37 60 182 176 22 23 7 8 19 17 16 12 15 9 3 55 41 5 3
6 0 4 1 15 8 10 3 3 10 5 1 0 10 21 51 142 173 207 299 319 151 160 323 352 296 291 153 185 128 158 150 236 80 32 127 141 105 61 56 69 20 33 33 23 35 39 32 9 15 32 34 31 8
4 0 9 1 2 1 0 4 17 10 11 116 175 204 335 184 53 163 248 84 8 48 138 187 143 53 39 52 75 64 178 21 25 143 179 85 192 177 105 28 52 35 31 5 10 40 40 25 6 15 19 29 77 46
0 8 6 1 2 0 10 32 12 18 4 31 130 201 231 380 412 368 200 217 176 146 178 11 8 21 39 86 73 51 160 80 53 16 55 112 154 187 119 81 33 36 57 48 22 21 24 12 12 16 19 14 15 20
1 0 1 0 17 17 10 17 11 2 10 57 202 331 385 356 254 259 130 174 166 47 27 0 24 40 42 61 41 50 157 17 21 10 37 127 63 61 40 87 62 26 39 19 17 26 31 38 9 7 11 8 0 7
0 3 0 12 5 2 2 5 8 7 7 0 179 279 349 245 196 99 106 26 33 13 0 0 17 25 24 40 57 65 78 44 62 74 46 40 37 59 76 59 23 20 34 20 8 6 24 30 24 28 23 8 0 2
0 4 5 2 7 6 6 2 1 10 39 2 200 197 158 213 190 218 117 0 2 0 0 0 11 31 31 24 19 15 3 1 1 13 41 63 43 12 29 35 5 0 2 0 5 11 21 17 12 9 5 2 1 0
5 4 3 3 3 3 4 2 3 5 69 26 26 11 79 193 48 170 43 0 0 0 0 0 6 25 20 20 18 22 25 3 11 11 52 23 59 15 11 2 0 0 0 0 0 0 0 0 0 4 2 5 1 0
1 0 0 0 7 7 0 0 0 8 21 2 137 87 229 256 8 43 70 1 0 0 0 1 1 10 14 0 0 9 8 30 34 36 43 18 26 14 12 12 0 0 0 0 0 0 0 0 0 0 1 13 2 15
0 0 0 1 0 0 0 1 4 33 63 117 144 174 70 13 0 37 82 18 1 0 0 4 8 9 26 33 34 40 3 25 56 32 25 32 14 0 1 6 7 13 12 14 4 1 0 0 0 0 1 5 8 2
0 0 0 0 0 0 1 6 7 3 2 1 0 0 0 39 64 40 139 20 3 1 1 4 15 24 25 33 39 7 12 2 33 43 10 4 14 3 0 0 0 2 4 4 8 17 11 11 26 25 15 15 16 16
0 0 0 0 0 0 0 0 0 0 0 2 6 2 0 6 142 145 135 70 4 2 0 0 15 9 3 29 31 0 0 0 2 21 4 5 24 18 22 12 0 0 0 4 12 17 5 10 15 18 12 18 29 26
2 0 0 0 0 0 0 0 0 0 0 32 41 19 14 42 131 160 114 80 19 8 0 0 0 3 10 10 6 0 0 0 0 0 0 0 0 0 0 0 0 6 1 1 2 6 7 7 1 5 11 10 9 21
CIN
0 0 0 0 0 0 0 0 -1 -1 0 -2 -1 0 0 0 0 0 0 0 0 0 0 0 0 0 0 0 0 0 0 0 0 0 0 0 0 0 0 0 0 0 0 -1 -3 -2 -1 -70 -43 -26 0 0 0 0
0 0 0 0 0 0 0 0 -2 -2 0 -2 -3 0 0 0 0 0 0 0 0 0 0 0 0 0 0 0 0 0 0 0 0 0 0 0 0 0 0 0 0 0 0 0 0 -13 0 0 -4 -5 0 0 0 0
0 0 0 0 -1 0 0 0 -1 -1 -3 -2 -4 -1 0 0 0 0 0 0 0 0 0 0 0 0 0 0 0 0 0 0 0 0 0 0 0 0 0 0 0 0 -9 -3 0 0 0 -19 0 0 0 0 0 0
-1 -2 -1 -1 -1 0 -1 -2 -3 -3 -4 -5 -5 -4 -5 0 0 0 0 0 0 0 0 -3 0 0 0 0 0 0 0 0 0 0 0 0 0 0 0 0 0 0 0 0 0 -1 0 0 -8 -5 -3 0 0 0
0 -1 -1 0 0 -1 -3 -4 -5 -7 -2 -5 -5 -4 0 0 0 0 0 -1 0 0 -1 -4 0 0 0 0 0 0 0 0 0 -1 0 -3 -3 -3 -1 0 0 0 -3 -6 -4 -8 -20 -16 0 0 0 0 0 0
-1 0 0 -1 -2 0 0 0 -1 -8 -10 -6 -6 -2 0 0 0 0 -1 -2 0 0 0 0 -20 0 0 0 0 0 0 0 0 -1 0 -3 -1 0 0 0 0 0 0 0 0 0 0 0 0 0 0 0 0 0
0 -1 -1 0 0 0 0 0 0 0 -9 0 0 0 0 0 0 0 -9 0 0 0 0 -1 -2 0 0 0 0 0 -1 0 0 -1 0 0 -2 -6 -3 -1 -2 0 -22 -90 0 0 0 0 -1 -3 -4 -15 -7 -3
0 0 0 0 0 0 0 0 0 0 0 0 0 0 0 0 0 -1 0 0 0 -1 0 -1 -21 0 0 0 -2 -2 -3 -2 -4 -1 0 -1 0 0 -1 -2 0 -15 -65 -40 -16 -5 0 -11 -2 -4 -5 -7 -17 -135
0 0 0 0 0 0 0 0 0 0 0 0 0 0 0 0 0 -3 0 0 0 -1 -1 -3 -2 -1 0 -9 -3 -3 -2 -3 -2 -2 0 0 0 0 -2 -43 -56 -20 -12 -2 0 -3 0 -11 -25 -19 -16 -1 -1 -32
0 0 0 0 0 0 0 0 0 0 0 0 0 -1 0 -2 0 0 0 -1 0 0 -1 0 -3 -5 0 -4 -1 -3 -1 -3 -3 -4 -5 -1 0 -26 -35 -21 0 -1 0 -4 -28 -24 -25 -41 -2 0 -2 -1 -2 0
0 0 0 0 0 0 0 0 0 0 0 -83 -28 0 -1 0 -16 0 0 0 0 0 -51 -107 -10 -17 -3 -5 -2 -5 -3 -3 -2 -3 -3 -2 -11 -15 0 -1 0 0 -2 -48 -36 -59 -18 -16 -10 -1 -1 -2 -1 0
0 0 0 0 0 0 0 0 0 0 -3 0 0 0 -1 0 -2 0 -1 -1 -1 -10 -58 -7 -1 -2 -2 -3 -1 -7 -7 -2 -1 -9 -2 -1 -4 -23 -35 0 0 0 -28 -2 -1 -20 -17 -19 -12 -2 -2 0 0 0
0 0 0 0 0 0 0 0 0 0 0 -1 -12 -15 -24 -1 -2 0 -1 -8 -14 -9 -10 -2 -3 -1 -5 -13 -2 -6 -2 -14 -22 -7 -4 -3 -26 -27 -8 -10 -16 -30 -14 0 -1 -2 0 -1 -19 -9 0 0 0 0
0 0 0 0 0 0 0 0 0 0 0 -4 -1 -1 -3 0 -6 -27 -11 -4 -2 -4 -1 -4 -5 -1 -5 -2 -1 -1 -3 -6 -31 -1 -13 -5 -11 -12 -15 -6 -6 -47 0 0 -9 0 -2 -20 -28 -13 -15 -1 -2 -1
0 0 0 0 0 0 0 0 0 0 -6 -1 -1 -2 -46 -9 -17 -12 -20 -7 -6 -6 -11 -8 -4 -8 -5 -8 -1 -4 -4 -1 -1 -29 -1 -8 -9 -3 -6 -1 -8 0 0 -1 -2 -1 -6 -10 -20 -14 -4 0 0 -1
0 0 0 0 0 0 0 0 0 0 -2 -1 -1 -1 0 -5 -8 -3 -4 -2 -3 -3 -7 -4 -13 -4 -1 -9 0 -1 -3 -3 -12 -35 0 -13 -40 -6 -4 -1 -19 0 -4 -1 0 -2 -10 -15 -10 -7 -5 -3 -3 -4
0 -1 0 0 0 0 0 0 -1 0 -1 -1 -1 0 -1 -4 -11 -11 -3 -5 -45 -6 -4 -12 -2 -1 -2 -1 0 -4 -7 -15 -54 0 0 -9 -8 -10 -46 0 0 -21 -15 -1 -1 -12 -12 -13 -18 -10 -8 -17 -1 0
-3 -22 0 0 0 -1 0 -3 0 -1 0 -2 -1 -2 -4 -5 -4 -4 -4 -2 -2 -1 -1 -6 -4 -5 -3 -1 -1 -3 -6 -8 -31 -24 -11 -6 -3 -3 -6 -10 -2 -3 -7 -10 -18 -1 -7 -4 -5 -16 -15 -13 -13 0
-2 0 0 0 0 0 -1 -2 -2 -1 -1 -3 -3 -6 -4 -3 -2 -4 -2 -2 -1 -14 -8 -12 -4 -1 -2 -3 -7 -5 -5 -5 -5 -14 -15 -6 -5 -2 -1 -1 -1 -1 -5 -6 -2 -1 -9 -15 -19 -15 -17 -3 -3 0
0 0 0 0 0 0 0 0 -2 0 -2 -9 -2 -5 -2 -4 -12 -6 -9 -9 -18 -25 -13 -5 -3 -2 -10 -10 -9 -5 -5 -5 -5 -15 -8 -5 -14 -12 -8 -2 -5 -25 -6 -9 -27 -23 -15 -2 -12 -14 -16 -17 -2 -8
0 -2 0 -2 -1 -2 0 -2 -1 -2 -2 -1 -4 -10 -11 -13 -1 -16 -9 -7 -29 -15 0 -2 -1 -5 -6 -7 -2 -2 -5 -5 -3 -15 -9 -15 -2 0 -1 -29 -19 -6 -4 -2 -2 -3 -13 -22 -26 -20 -8 -1 -35 -28
-3 0 -1 -1 0 0 0 -1 -1 -1 -1 -2 0 -5 -7 -10 -5 -14 -4 -1 -2 -2 -11 -1 -4 -3 -3 -5 -2 -5 -6 -2 -7 -10 -23 -13 -14 -6 -4 -5 -7 -2 -2 -2 -7 -2 -10 -4 -9 -2 -3 -15 -19 -45
-4 -1 0 0 0 0 0 -2 -1 -2 0 -1 -6 -5 -9 -10 -27 -18 -6 -16 -33 -112 -2 -10 -9 -20 -17 -18 -26 -10 -8 -5 -35 -10 -5 -19 -6 -2 -2 -10 -13 -2 -1 -14 -19 -9 -1 -13 -8 -12 -8 -4 -10 -15
0 0 0 0 0 0 -1 -1 -2 0 -1 -10 -6 -2 -1 -5 -6 -9 -12 -14 -23 -5 -11 -16 -1 -1 -3 -46 -6 -8 -9 -21 -12 -16 -9 -1 -2 -1 -3 -3 -7 -1 0 -1 -9 -17 -2 -5 -5 -2 -2 -3 -2 -8
-1 0 0 0 -1 0 -1 0 -5 -10 -5 -4 -2 -5 -1 -1 -5 -3 -7 -2 -3 -4 -15 0 -2 -2 -3 -2 -2 -1 -7 -28 -41 -14 -20 -3 -4 -4 -9 -3 -1 -9 -4 -1 -9 -2 -2 -2 -2 -5 -1 -2 0 -2
0 -1 -1 -1 -2 -2 -3 -3 -2 -3 -8 -5 -4 -3 -2 -2 -2 -9 -7 -3 -4 -4 0 0 -1 -2 -4 -5 -6 -3 -3 -4 -5 -14 -3 -4 -5 -2 -1 -2 -3 -4 -4 -3 -2 -3 -2 -5 -2 -3 -3 -5 0 -4
0 -1 -1 -1 -1 -1 0 -8 -5 -10 -19 -10 -3 -5 -33 -2 -1 -10 -6 0 -1 0 0 0 -2 -3 -2 -2 -4 -5 -4 -4 -4 -4 -3 -4 -7 -6 -6 -3 -3 0 -4 0 -6 -7 -3 -3 -3 -4 -4 -4 -5 -1
-1 -3 -1 -2 -3 -2 -1 -3 -2 -3 -2 -8 -20 -2 -9 -8 -21 -10 -8 0 0 0 0 0 -6 -4 -3 -3 -7 -10 -3 -20 -48 -43 -19 -28 -5 -36 -9 -3 0 0 0 0 0 0 0 0 0 -4 -3 -2 -1 0
0 0 0 0 -2 -2 0 0 -1 -2 -33 -11 -16 -2 0 -14 -90 -45 -6 -1 0 0 0 -1 -4 -4 -5 0 0 -8 -7 -4 -9 -7 -7 -19 -4 -3 -5 -7 0 0 0 0 0 0 0 0 0 0 -7 -4 -4 -4
-1 0 0 0 -1 0 0 -2 -3 -3 -14 -3 -5 -4 -19 -88 0 -57 -37 -3 -3 -1 0 -3 -5 -6 -3 -5 -4 -4 -12 -8 -4 -8 -8 -4 -7 0 -2 -4 -3 -3 -3 -6 -8 -8 0 0 0 0 -8 -6 -5 -5
0 -1 0 0 0 0 -3 -4 -2 -1 -1 -1 0 0 0 -21 -83 -95 -12 -3 -2 -2 -2 -3 -3 -5 -4 -3 -1 -23 -8 -22 -5 -8 -11 -3 -10 -14 0 0 0 -5 -2 -5 -5 -4 -3 -8 -4 -3 -5 -3 -3 -5
0 0 0 -1 0 0 0 0 0 0 0 -2 -3 -3 0 -6 -1 -5 -27 -25 -1 -2 0 0 -3 -2 -8 -5 -6 -2 0 0 -5 -5 -6 -6 -3 -3 -5 -6 0 0 0 -4 -3 -6 -9 -2 -2 -2 -2 -1 -2 -2
-2 -1 0 -1 0 0 0 0 0 0 -1 -2 -3 -6 -3 -5 -3 -5 -32 -18 -3 -3 -1 0 0 -3 -5 -10 -8 0 -1 -1 0 0 0 0 0 0 0 0 0 -3 -1 -1 -2 -2 -4 -3 -2 -3 -2 -4 -5 -3
Wind_Speed
29 29 30 30 30 30 31 31 31 31 31 31 31 30 29 28 27 24 21 20 20 20 18 19 19 20 19 18 22 20 20 16 18 20 22 23 24 23 23 24 25 27 29 30 29 32 32 29 26 27 23 22 24 26
29 29 29 29 30 30 30 30 31 31 31 31 31 30 29 27 27 25 21 22 21 18 21 19 19 17 17 18 19 19 20 18 19 19 20 21 22 23 24 27 22 26 25 30 27 27 23 26 21 21 25 29 30 32
28 29 29 29 29 30 30 30 31 31 31 31 31 30 28 27 26 24 21 24 23 18 17 16 12 15 16 17 19 18 16 18 18 19 21 21 22 23 26 25 28 24 24 27 31 30 31 27 28 28 32 35 36 35
27 28 28 28 29 29 29 31 31 32 31 31 31 29 28 26 26 25 21 22 22 19 18 10 14 17 17 17 17 18 18 18 19 19 20 22 24 22 24 25 27 28 33 31 35 34 36 31 30 32 34 36 38 39
27 27 28 29 28 29 29 30 31 31 31 31 30 28 27 27 26 26 22 18 18 18 19 18 13 16 14 13 14 16 17 18 20 20 19 21 22 24 23 25 25 25 29 30 35 31 32 34 36 38 42 43 42 44
26 26 27 27 29 29 30 30 31 32 31 30 30 28 27 26 26 20 13 15 19 21 19 19 14 16 14 13 13 13 15 16 18 20 22 21 21 22 21 22 24 28 31 32 32 33 35 37 39 38 41 41 42 43
24 25 27 28 28 29 30 30 30 30 31 30 29 28 27 26 22 19 17 18 22 21 17 19 16 12 10 12 13 13 11 16 18 20 20 21 20 18 22 26 27 30 30 30 29 33 36 37 41 39 40 42 42 45
23 24 26 27 27 29 30 31 30 31 29 30 29 29 27 24 21 19 17 16 20 18 16 18 16 13 9 11 12 15 15 15 15 19 20 19 18 17 20 20 24 27 27 29 29 29 34 37 36 36 38 42 45 44
23 24 26 26 27 28 30 29 30 31 28 30 28 25 16 15 16 17 18 17 15 15 16 17 21 14 9 12 12 12 15 18 16 19 18 14 18 19 20 21 25 30 27 29 30 35 38 39 39 42 46 48 49 50
22 23 24 25 26 28 29 30 31 30 28 26 18 15 16 16 17 17 16 15 14 13 14 15 15 13 10 14 15 16 16 19 20 20 11 14 14 14 15 18 18 22 25 29 33 34 37 43 44 44 49 49 50 50
22 22 24 25 27 28 27 28 28 28 19 14 18 17 16 15 15 16 16 15 12 14 10 10 12 12 14 17 17 15 16 17 18 17 14 17 17 15 15 18 22 26 28 29 29 33 36 39 43 47 49 49 48 42
21 22 23 25 27 27 26 26 23 17 19 19 20 20 16 15 16 17 16 15 13 15 7 9 11 11 13 15 13 15 16 16 16 15 16 17 18 11 13 19 25 26 30 33 32 33 37 41 45 46 46 48 46 45
21 22 23 26 27 25 24 25 21 16 23 16 14 17 16 16 18 17 13 12 13 11 10 6 8 10 11 13 14 14 15 14 19 16 16 20 11 15 16 20 25 28 29 32 29 32 32 40 44 42 42 43 40 30
22 22 22 24 23 23 26 26 19 16 15 17 18 20 17 15 16 11 12 15 16 12 9 10 10 11 12 13 14 15 13 16 16 18 15 15 13 14 18 21 24 26 30 28 28 32 33 37 39 40 39 38 41 40
23 23 22 17 17 19 20 17 16 19 20 19 16 15 9 22 20 20 19 20 21 9 10 10 9 12 14 14 13 13 15 15 14 14 13 15 14 18 20 20 21 26 25 27 29 34 31 21 32 34 35 39 39 41
26 23 14 17 18 18 9 9 13 15 19 19 20 20 22 20 19 19 21 5 9 14 14 15 18 15 12 13 12 12 15 15 18 20 24 23 18 20 21 21 24 20 23 29 29 33 34 18 13 16 25 35 33 39
22 16 16 20 25 17 11 12 15 15 18 18 17 20 21 21 16 19 6 15 12 5 10 15 16 18 16 15 15 13 19 22 20 24 26 16 24 26 25 25 24 20 22 28 26 30 24 13 12 9 21 33 39 41
15 15 17 24 25 18 11 10 13 16 14 20 20 21 22 23 23 23 22 14 11 13 15 16 18 17 18 20 22 23 21 20 21 22 26 27 26 25 26 26 24 22 24 27 28 24 29 11 23 25 20 16 32 33
9 24 25 24 19 15 13 9 20 8 16 20 21 22 23 24 24 19 5 8 10 16 11 15 15 15 16 22 24 24 21 20 22 21 23 22 23 25 24 23 22 23 25 23 24 23 29 31 15 25 33 36 28 16
8 18 20 8 9 12 14 18 20 20 18 18 20 21 20 11 6 8 5 7 10 14 18 16 16 23 24 21 19 20 18 17 17 19 19 21 21 21 19 21 20 22 22 22 23 22 21 29 30 26 30 33 36 34
18 15 16 12 10 21 20 19 20 19 18 18 18 16 11 16 17 20 24 9 14 12 11 13 18 19 19 22 20 20 21 19 18 18 18 18 19 17 19 20 19 20 19 19 20 20 23 16 16 28 28 31 28 29
14 15 13 18 18 19 20 21 19 19 18 18 17 14 9 11 14 11 7 11 9 6 14 15 17 14 14 18 18 18 17 18 18 16 15 17 19 18 19 18 17 19 18 18 19 18 21 22 22 24 27 28 30 29
18 12 19 19 19 19 19 20 19 18 16 14 12 12 12 13 12 10 13 15 14 7 19 18 16 16 15 16 16 17 17 19 13 15 16 16 14 15 18 19 19 19 18 19 19 19 20 13 23 23 21 26 23 26
21 20 20 20 22 19 19 20 19 17 16 15 12 11 12 16 17 13 12 11 13 16 18 17 16 17 17 16 15 15 15 16 21 16 6 12 15 14 19 19 18 18 18 18 17 16 19 20 20 21 25 26 26 25
20 21 21 22 21 20 19 19 19 17 17 13 13 13 15 15 15 15 14 14 15 17 18 16 16 17 15 15 15 19 12 17 14 17 14 11 13 16 12 18 18 17 18 16 16 18 19 21 24 22 24 26 27 28
22 22 23 21 23 19 20 19 18 17 13 16 14 15 14 15 14 14 13 17 16 17 17 17 17 17 18 17 16 15 15 14 16 11 13 16 15 14 11 11 13 12 15 16 17 18 18 20 20 21 23 23 26 26
22 22 23 24 22 20 20 20 18 18 13 16 12 10 12 13 16 15 14 17 16 17 18 18 18 18 18 18 18 18 17 15 16 13 10 10 13 13 16 12 9 10 11 11 12 13 12 11 12 17 23 24 25 23
24 22 23 20 21 23 23 22 21 17 17 15 6 12 13 15 15 11 16 16 16 18 18 18 17 17 17 17 16 16 14 19 13 12 12 9 14 13 16 20 18 18 11 12 8 8 9 9 8 7 18 20 20 20
22 21 22 22 24 23 23 24 23 21 12 12 15 14 11 17 18 13 9 16 15 16 17 17 17 16 16 17 16 15 13 14 17 12 13 12 15 17 18 18 18 18 18 18 17 15 16 10 9 11 7 9 15 16
19 21 19 21 13 21 23 25 24 23 7 8 10 7 14 20 19 15 12 14 14 15 16 17 17 16 16 15 14 13 14 10 11 10 13 14 16 18 17 16 15 15 14 14 13 13 12 11 11 10 9 10 17 11
11 15 19 19 19 23 27 26 26 26 26 26 25 23 21 9 11 19 15 13 12 14 16 16 17 16 15 14 13 13 12 12 12 12 11 10 17 15 17 15 15 15 15 12 11 13 11 8 11 14 15 13 14 12
20 21 22 22 22 22 22 25 26 26 25 24 21 18 19 17 18 12 11 17 12 14 15 17 17 15 16 15 15 18 13 12 14 16 15 15 11 16 14 13 15 16 13 12 11 14 13 11 10 12 11 9 10 11
19 19 22 21 24 24 23 23 24 25 24 24 24 22 18 18 19 11 10 17 14 13 14 14 18 16 12 12 13 14 12 14 14 15 15 14 12 10 11 11 8 12 13 12 10 9 8 12 11 9 10 9 8 7
Wind_Direction
323 321 322 323 323 324 322 320 319 320 319 319 320 321 319 319 321 322 311 330 311 295 316 312 310 302 307 304 301 316 309 310 308 303 300 299 299 301 301 302 303 298 297 295 296 290 284 320 310 297 303 309 308 307
324 323 323 320 320 322 321 321 320 319 319 319 319 319 319 320 320 320 315 325 318 303 310 317 311 314 308 312 309 315 310 310 318 308 313 309 304 309 305 299 311 302 301 296 299 302 317 318 323 317 311 306 307 304
320 316 322 326 328 326 328 328 325 323 321 320 320 319 318 318 318 321 320 310 314 310 309 315 318 321 311 307 305 307 316 314 316 311 309 310 307 309 302 304 307 311 326 305 301 300 301 307 317 310 306 303 303 303
329 330 332 332 331 333 335 330 327 327 328 326 323 320 316 312 309 309 314 317 312 310 308 314 321 315 308 305 304 305 312 313 311 312 306 304 304 314 309 311 309 308 307 307 302 302 303 301 308 311 309 307 304 302
333 332 332 333 337 337 336 334 330 330 329 326 323 320 314 307 302 299 302 318 322 309 303 316 332 319 325 318 312 310 307 308 304 305 308 308 313 314 316 315 313 315 316 310 306 313 309 307 307 307 302 301 301 300
339 343 341 341 336 337 335 334 330 327 325 329 320 313 309 303 300 309 322 326 318 307 301 308 319 315 321 323 321 322 319 319 314 313 311 317 321 321 323 320 321 317 315 316 314 314 312 310 310 311 307 305 303 302
346 345 340 339 339 340 338 337 335 332 321 323 316 305 299 298 301 301 306 307 305 301 302 300 305 333 329 328 323 324 333 326 321 321 320 319 321 324 318 314 324 323 323 324 324 320 315 315 312 312 308 306 304 300
350 349 345 345 346 343 339 336 338 327 329 309 299 295 294 295 293 298 311 310 307 304 302 298 310 322 336 321 326 324 325 326 333 330 328 325 329 329 320 329 331 329 330 328 323 324 321 315 313 313 312 308 304 302
349 347 345 347 349 346 342 344 336 324 327 301 295 292 321 315 309 301 309 311 309 302 297 297 301 311 340 323 332 338 338 326 338 325 330 341 333 325 334 335 335 334 332 334 327 322 319 314 314 309 305 302 297 296
349 345 346 347 348 346 346 344 331 330 323 295 313 329 319 310 302 307 308 308 311 309 305 297 311 317 326 320 329 328 337 328 329 332 351 334 334 350 357 351 354 348 340 337 330 326 318 308 304 304 297 297 295 297
350 348 348 348 345 345 347 343 341 339 344 353 308 316 318 321 308 296 299 303 314 311 320 316 318 322 325 315 328 340 343 343 335 340 340 341 340 350 359 354 351 347 343 340 337 331 320 310 303 301 301 301 307 310
350 349 351 352 352 350 347 345 348 357 346 321 299 295 310 313 304 296 300 306 313 311 339 308 319 333 352 346 347 346 341 346 338 349 341 336 335 5 354 352 349 350 340 336 335 333 326 317 309 304 306 310 313 306
350 348 349 349 353 355 353 350 341 336 283 318 323 292 304 307 290 287 312 319 310 318 316 357 358 356 355 352 347 348 343 340 336 338 336 335 5 360 357 352 349 344 340 336 341 337 337 320 320 321 310 306 301 281
346 345 349 351 358 359 0 350 331 322 317 306 298 291 297 300 292 315 312 305 278 308 356 349 354 357 348 349 347 341 350 347 343 335 334 344 1 359 349 350 352 347 340 344 343 334 335 326 318 321 313 305 316 322
342 343 349 0 5 6 13 30 258 257 253 288 303 302 302 223 246 245 247 201 211 15 23 8 4 349 338 338 349 351 349 344 349 347 347 344 355 350 348 355 355 348 347 343 340 315 297 280 317 309 306 313 313 313
333 339 12 13 4 11 60 145 132 163 193 187 188 187 217 234 261 225 194 348 12 331 338 341 333 337 343 342 343 341 339 339 343 342 345 327 338 346 350 351 348 356 348 332 340 305 315 280 288 300 298 314 310 350
345 4 9 357 334 247 165 95 147 142 174 163 155 180 203 219 180 196 36 326 350 106 359 344 334 327 339 338 337 339 331 328 341 337 317 264 347 345 346 343 343 354 346 333 352 299 286 278 291 304 308 321 332 345
2 3 355 325 315 331 55 117 175 171 143 200 208 217 228 242 258 266 282 342 360 349 338 330 334 331 327 325 322 329 335 332 341 343 331 328 339 346 342 337 340 339 333 337 345 287 313 286 306 315 313 321 28 30
307 304 288 301 339 8 13 358 225 105 183 204 212 231 245 249 252 244 33 9 356 339 349 348 342 344 337 330 330 328 339 346 340 343 351 352 345 343 341 337 333 323 316 321 349 303 347 342 44 24 10 10 34 50
170 229 245 189 68 15 339 276 222 213 213 236 231 221 223 176 152 172 34 14 1 354 335 343 346 332 330 338 349 350 358 3 1 356 359 355 354 354 358 334 324 303 294 313 322 317 307 336 355 29 26 22 25 43
318 358 4 38 71 224 238 224 211 204 220 218 218 210 170 213 224 324 284 58 354 1 5 358 350 348 346 338 347 350 349 356 4 4 0 3 4 15 353 337 327 300 293 305 327 329 360 306 310 359 23 27 47 51
359 8 11 258 243 234 221 209 204 237 218 214 228 200 169 192 218 202 61 7 12 74 26 11 3 14 18 4 7 12 23 20 17 21 30 17 3 357 342 332 337 315 300 296 308 303 4 332 332 344 17 32 38 49
318 262 225 220 216 215 212 206 210 198 179 171 196 125 105 91 95 132 53 26 33 312 17 25 23 10 19 31 47 53 45 32 52 49 37 40 41 16 323 322 295 299 292 314 288 292 313 359 357 17 42 11 41 40
219 217 213 212 193 214 218 212 197 187 184 170 171 160 130 96 98 104 102 107 98 84 64 62 96 88 98 101 104 98 81 74 8 264 125 83 54 38 319 319 252 342 306 309 309 266 311 319 314 351 359 5 14 13
211 203 206 199 205 216 221 219 199 193 208 206 204 150 112 112 105 99 103 98 114 95 85 99 125 110 109 122 90 42 110 78 98 89 112 133 84 62 119 319 320 353 286 297 280 258 323 335 338 352 5 6 357 355
201 199 190 198 189 222 221 224 225 188 182 188 133 107 133 100 104 112 116 88 100 100 101 118 126 116 111 122 104 124 132 132 105 127 114 103 110 122 161 232 239 234 270 282 284 293 340 327 353 13 5 30 28 34
205 197 186 195 208 227 231 209 201 217 213 147 174 204 215 117 88 86 90 70 85 90 101 117 127 109 107 107 115 110 122 131 116 117 136 141 132 127 116 150 193 231 236 241 264 282 261 244 278 313 17 33 37 42
209 209 188 163 172 193 209 228 233 216 189 328 234 41 100 71 115 134 70 76 89 97 112 120 138 127 120 116 120 128 128 77 115 137 124 165 128 137 118 101 110 130 151 159 197 232 251 253 232 223 77 63 58 58
182 179 191 203 206 254 234 224 221 244 6 36 350 257 63 313 277 248 180 80 94 107 122 119 130 140 118 120 126 140 132 121 96 113 122 127 126 114 96 104 110 124 129 113 116 116 110 128 138 135 147 108 72 70
176 182 183 205 281 194 202 240 252 272 360 353 18 134 0 318 235 188 182 113 108 125 134 136 126 143 154 151 149 141 125 156 143 131 115 112 102 87 96 105 118 123 125 130 129 122 117 121 128 129 116 101 71 84
129 151 173 181 186 207 232 255 256 258 262 268 258 237 235 44 118 188 184 106 120 130 140 149 157 157 158 153 143 107 117 126 122 120 126 162 78 98 80 98 120 110 106 128 145 117 115 141 120 95 83 89 84 86
178 185 196 201 207 208 212 222 232 232 233 228 215 196 197 195 210 331 147 226 131 144 141 164 165 129 149 139 77 48 86 98 87 83 86 96 128 73 99 113 92 87 101 129 132 103 94 114 114 99 97 103 88 82
173 176 197 203 220 219 218 220 221 223 222 222 218 208 182 186 202 11 82 172 156 144 135 129 165 148 102 107 35 49 101 92 75 66 70 67 70 117 181 208 135 101 93 107 132 137 137 98 89 100 89 87 97 101